| time (UTC) | temp C | wind direction | speed KPH | gust KPH | rain 1hr cm | rain 24hr cm | rain mn cm | humidity % | barometer mb |
| 20260906112005 | 24 | 0.0 | 0.0 | 0.00 | 0.00 | 0.00 | 86 | 1014.5 | |
| 20260906111504 | 24 | 0.0 | 0.0 | 0.00 | 0.00 | 0.00 | 86 | 1014.4 | |
| 20260906111004 | 24 | 0.0 | 0.0 | 0.00 | 0.00 | 0.00 | 86 | 1014.4 | |
| 20260906110503 | 24 | 0.0 | 1.6 | 0.00 | 0.00 | 0.00 | 87 | 1014.4 | |
| 20260906110002 | 24 | 0.0 | 1.6 | 0.00 | 0.00 | 0.00 | 86 | 1014.3 | |
| 20260906105502 | 24 | 0.0 | 1.6 | 0.00 | 0.00 | 0.00 | 86 | 1014.3 | |
| 20260906105004 | 24 | 0.0 | 1.6 | 0.00 | 0.00 | 0.00 | 86 | 1014.3 | |
| 20260906104621 | 24 | 0.0 | 0.0 | 0.00 | 0.00 | 0.00 | 86 | 1014.2 | |
| 20260906104100 | 24 | 0.0 | 0.0 | 0.00 | 0.00 | 0.00 | 86 | 1014.1 | |
| 20260906103600 | 24 | 0.0 | 0.0 | 0.00 | 0.00 | 0.00 | 86 | 1014.1 | |
| 20260906103059 | 24 | 0.0 | 1.6 | 0.00 | 0.00 | 0.00 | 85 | 1014.1 | |
| 20260906102558 | 24 | 0.0 | 1.6 | 0.00 | 0.00 | 0.00 | 85 | 1014.1 | |
| 20260906102057 | 24 | 0.0 | 3.2 | 0.00 | 0.00 | 0.00 | 85 | 1014.0 | |
| 20260906101557 | 24 | 0.0 | 3.2 | 0.00 | 0.00 | 0.00 | 85 | 1014.0 | |
| 20260906101055 | 24 | 0.0 | 1.6 | 0.00 | 0.00 | 0.00 | 85 | 1014.0 | |
| 20260906100555 | 24 | 0.0 | 6.4 | 0.00 | 0.00 | 0.00 | 85 | 1014.1 | |
| 20260906100054 | 24 | 1.6 | 6.4 | 0.00 | 0.00 | 0.00 | 85 | 1014.2 | |
| 20260906095553 | 24 | 0.0 | 3.2 | 0.00 | 0.00 | 0.00 | 85 | 1014.4 | |
| 20260906095057 | 24 | 0.0 | 3.2 | 0.00 | 0.00 | 0.00 | 85 | 1014.4 | |
| 20260906094636 | 24 | 0.0 | 3.2 | 0.00 | 0.00 | 0.00 | 86 | 1014.2 | |
| 20260906094051 | 24 | 0.0 | 3.2 | 0.00 | 0.00 | 0.00 | 85 | 1014.1 | |
| 20260906093551 | 24 | 0.0 | 6.4 | 0.00 | 0.00 | 0.00 | 85 | 1014.2 | |
| 20260906093102 | 24 | 1.6 | 6.4 | 0.00 | 0.00 | 0.00 | 84 | 1014.0 | |
| 20260906092553 | 24 | 0.0 | 4.8 | 0.00 | 0.00 | 0.00 | 84 | 1014.1 | |
| 20260906092049 | 24 | 0.0 | 4.8 | 0.00 | 0.00 | 0.00 | 84 | 1014.1 | |
| 20260906091548 | 24 | 0.0 | 4.8 | 0.00 | 0.00 | 0.00 | 85 | 1014.0 | |
| 20260906091047 | 24 | 0.0 | 3.2 | 0.00 | 0.00 | 0.00 | 85 | 1014.0 | |
| 20260906090546 | 24 | 0.0 | 3.2 | 0.00 | 0.00 | 0.00 | 84 | 1013.9 | |
| 20260906090046 | 24 | 0.0 | 4.8 | 0.00 | 0.00 | 0.00 | 84 | 1014.0 | |
| 20260906085544 | 24 | 0.0 | 4.8 | 0.00 | 0.00 | 0.00 | 84 | 1014.0 | |
| 20260906085044 | 24 | 0.0 | 4.8 | 0.00 | 0.00 | 0.00 | 84 | 1013.8 | |
| 20260906084544 | 24 | 1.6 | 6.4 | 0.00 | 0.00 | 0.00 | 83 | 1013.7 | |
| 20260906084142 | 24 | 3.2 | 9.7 | 0.00 | 0.00 | 0.00 | 83 | 1013.8 | |
| 20260906083544 | 24 | 4.8 | 9.7 | 0.00 | 0.00 | 0.00 | 83 | 1013.6 | |
| 20260906083041 | 24 | 1.6 | 6.4 | 0.00 | 0.00 | 0.00 | 84 | 1013.5 | |
| 20260906082540 | 24 | 1.6 | 6.4 | 0.00 | 0.00 | 0.00 | 84 | 1013.5 | |
| 20260906082040 | 24 | 0.0 | 3.2 | 0.00 | 0.00 | 0.00 | 84 | 1013.4 | |
| 20260906081548 | 24 | 0.0 | 3.2 | 0.00 | 0.00 | 0.00 | 84 | 1013.3 | |
| 20260906081039 | 24 | 1.6 | 4.8 | 0.00 | 0.00 | 0.00 | 84 | 1013.2 | |
| 20260906080538 | 24 | 0.0 | 4.8 | 0.00 | 0.00 | 0.00 | 84 | 1013.2 | |
| 20260906080046 | 24 | 1.6 | 8.0 | 0.00 | 0.00 | 0.00 | 83 | 1013.3 | |
| 20260906075536 | 24 | 1.6 | 8.0 | 0.00 | 0.00 | 0.00 | 83 | 1013.3 | |
| 20260906075035 | 25 | 3.2 | 8.0 | 0.00 | 0.00 | 0.00 | 83 | 1013.2 | |
| 20260906074534 | 25 | 1.6 | 9.7 | 0.00 | 0.00 | 0.00 | 83 | 1013.2 | |
| 20260906074032 | 25 | 1.6 | 11.3 | 0.00 | 0.00 | 0.00 | 83 | 1013.3 | |
| 20260906073531 | 25 | 4.8 | 11.3 | 0.00 | 0.00 | 0.00 | 82 | 1013.4 | |
| 20260906073030 | 25 | 0.0 | 6.4 | 0.00 | 0.00 | 0.00 | 83 | 1013.4 | |
| 20260906072529 | 25 | 0.0 | 1.6 | 0.00 | 0.00 | 0.00 | 82 | 1013.4 | |
| 20260906072029 | 25 | 0.0 | 1.6 | 0.00 | 0.00 | 0.00 | 81 | 1013.4 | |
| 20260906071526 | 25 | 0.0 | 1.6 | 0.00 | 0.00 | 0.00 | 81 | 1013.4 | |
| 20260906071026 | 25 | 0.0 | 1.6 | 0.00 | 0.00 | 0.00 | 80 | 1013.4 | |
| 20260906070531 | 25 | 0.0 | 1.6 | 0.00 | 0.00 | 0.00 | 80 | 1013.5 | |
| 20260906070023 | 25 | 0.0 | 0.0 | 0.00 | 0.00 | 0.00 | 81 | 1013.5 | |
| 20260906065522 | 25 | 0.0 | 0.0 | 0.00 | 0.00 | 0.00 | 80 | 1013.6 | |
| 20260906065021 | 25 | 0.0 | 0.0 | 0.00 | 0.00 | 0.00 | 79 | 1013.5 | |
| 20260906064520 | 26 | 0.0 | 1.6 | 0.00 | 0.00 | 0.00 | 79 | 1013.6 | |
| 20260906064018 | 26 | 0.0 | 3.2 | 0.00 | 0.00 | 0.00 | 79 | 1013.7 | |
| 20260906063517 | 26 | 0.0 | 4.8 | 0.00 | 0.00 | 0.00 | 78 | 1013.7 | |
| 20260906063016 | 26 | 3.2 | 4.8 | 0.00 | 0.00 | 0.00 | 78 | 1013.7 | |
| 20260906062520 | 26 | 1.6 | 4.8 | 0.00 | 0.00 | 0.00 | 78 | 1013.9 | |
| 20260906062014 | 26 | 0.0 | 4.8 | 0.00 | 0.00 | 0.00 | 77 | 1014.0 | |
| 20260906061516 | 26 | 0.0 | 3.2 | 0.00 | 0.00 | 0.00 | 77 | 1014.0 | |
| 20260906061011 | 26 | 0.0 | 4.8 | 0.00 | 0.00 | 0.00 | 77 | 1014.1 | |
| 20260906060509 | 26 | 0.0 | 4.8 | 0.00 | 0.00 | 0.00 | 77 | 1014.2 | |
| 20260906060010 | 26 | 3.2 | 4.8 | 0.00 | 0.00 | 0.00 | 77 | 1014.2 | |
| 20260906055508 | 26 | 0.0 | 1.6 | 0.00 | 0.00 | 0.00 | 78 | 1014.2 | |
| 20260906055007 | 26 | 0.0 | 4.8 | 0.00 | 0.00 | 0.00 | 77 | 1014.2 | |
| 20260906054504 | 26 | 0.0 | 4.8 | 0.00 | 0.00 | 0.00 | 76 | 1014.3 | |
| 20260906054006 | 26 | 1.6 | 4.8 | 0.00 | 0.00 | 0.00 | 75 | 1014.4 | |
| 20260906053504 | 26 | 0.0 | 4.8 | 0.00 | 0.00 | 0.00 | 76 | 1014.4 | |
| 20260906053003 | 27 | 1.6 | 4.8 | 0.00 | 0.00 | 0.00 | 76 | 1014.5 | |
| 20260906052502 | 27 | 0.0 | 3.2 | 0.00 | 0.00 | 0.00 | 75 | 1014.5 | |
| 20260906052101 | 27 | 1.6 | 4.8 | 0.00 | 0.00 | 0.00 | 75 | 1014.4 | |
| 20260906051559 | 27 | 0.0 | 4.8 | 0.00 | 0.00 | 0.00 | 74 | 1014.5 | |
| 20260906051100 | 27 | 0.0 | 1.6 | 0.00 | 0.00 | 0.00 | 75 | 1014.6 | |
| 20260906050556 | 27 | 0.0 | 6.4 | 0.00 | 0.00 | 0.00 | 74 | 1014.6 | |
| 20260906050114 | 27 | 1.6 | 6.4 | 0.00 | 0.00 | 0.00 | 74 | 1014.6 | |
| 20260906045556 | 27 | 0.0 | 1.6 | 0.00 | 0.00 | 0.00 | 75 | 1014.7 | |
| 20260906045055 | 27 | 0.0 | 3.2 | 0.00 | 0.00 | 0.00 | 75 | 1014.6 | |
| 20260906044556 | 27 | 0.0 | 3.2 | 0.00 | 0.00 | 0.00 | 74 | 1014.6 | |
| 20260906044056 | 27 | 0.0 | 1.6 | 0.00 | 0.00 | 0.00 | 74 | 1014.5 | |
| 20260906043554 | 27 | 0.0 | 0.0 | 0.00 | 0.00 | 0.00 | 74 | 1014.6 | |
| 20260906043051 | 27 | 0.0 | 4.8 | 0.00 | 0.00 | 0.00 | 74 | 1014.6 | |
| 20260906042549 | 27 | 0.0 | 9.7 | 0.00 | 0.00 | 0.00 | 74 | 1014.7 | |
| 20260906042049 | 27 | 1.6 | 9.7 | 0.00 | 0.00 | 0.00 | 74 | 1014.8 | |
| 20260906041549 | 27 | 0.0 | 6.4 | 0.00 | 0.00 | 0.00 | 76 | 1014.6 | |
| 20260906041046 | 27 | 1.6 | 4.8 | 0.00 | 0.00 | 0.00 | 75 | 1014.8 | |
| 20260906040547 | 27 | 0.0 | 1.6 | 0.00 | 0.00 | 0.00 | 78 | 1014.7 | |
| 20260906040045 | 28 | 0.0 | 3.2 | 0.00 | 0.00 | 0.00 | 80 | 1014.8 | |
| 20260906035546 | 28 | 0.0 | 3.2 | 0.00 | 0.00 | 0.00 | 82 | 1014.8 | |
| 20260906035044 | 28 | 0.0 | 4.8 | 0.00 | 0.00 | 0.00 | 84 | 1015.0 | |
| 20260906034548 | 28 | 1.6 | 4.8 | 0.00 | 0.00 | 0.00 | 84 | 1014.9 | |
| 20260906034041 | 28 | 0.0 | 0.0 | 0.00 | 0.00 | 0.00 | 84 | 1014.8 | |
| 20260906033540 | 28 | 0.0 | 0.0 | 0.00 | 0.00 | 0.00 | 84 | 1014.7 | |
| 20260906033041 | 28 | 0.0 | 1.6 | 0.00 | 0.00 | 0.00 | 84 | 1014.6 | |
| 20260906032540 | 28 | 0.0 | 1.6 | 0.00 | 0.00 | 0.00 | 84 | 1014.4 | |
| 20260906032140 | 28 | 0.0 | 0.0 | 0.00 | 0.00 | 0.00 | 84 | 1014.3 | |
| 20260906031547 | 28 | 0.0 | 4.8 | 0.00 | 0.00 | 0.00 | 83 | 1014.5 | |
| 20260906031036 | 28 | 1.6 | 6.4 | 0.00 | 0.00 | 0.00 | 83 | 1014.5 | |
| 20260906030536 | 28 | 1.6 | 6.4 | 0.00 | 0.00 | 0.00 | 83 | 1014.6 | |
| 20260906030035 | 28 | 1.6 | 3.2 | 0.00 | 0.00 | 0.00 | 83 | 1014.7 | |
| 20260906025535 | 28 | 0.0 | 3.2 | 0.00 | 0.00 | 0.00 | 83 | 1014.7 | |
| 20260906025035 | 28 | 0.0 | 3.2 | 0.00 | 0.00 | 0.00 | 82 | 1014.7 | |
| 20260906024534 | 28 | 1.6 | 3.2 | 0.00 | 0.00 | 0.00 | 82 | 1014.9 | |
| 20260906024033 | 28 | 0.0 | 3.2 | 0.00 | 0.00 | 0.00 | 81 | 1014.8 | |
| 20260906023533 | 28 | 0.0 | 3.2 | 0.00 | 0.00 | 0.00 | 81 | 1014.9 | |
| 20260906023033 | 28 | 0.0 | 9.7 | 0.00 | 0.00 | 0.00 | 81 | 1015.0 | |
| 20260906022532 | 29 | 1.6 | 9.7 | 0.00 | 0.00 | 0.00 | 81 | 1014.9 | |
| 20260906022034 | 29 | 1.6 | 8.0 | 0.00 | 0.00 | 0.00 | 80 | 1014.9 | |
| 20260906021530 | 29 | 3.2 | 8.0 | 0.00 | 0.00 | 0.00 | 80 | 1014.9 | |
| 20260906021028 | 29 | 1.6 | 8.0 | 0.00 | 0.00 | 0.00 | 80 | 1015.0 | |
| 20260906020529 | 29 | 3.2 | 12.9 | 0.00 | 0.00 | 0.00 | 80 | 1015.0 | |
| 20260906020032 | 29 | 4.8 | 12.9 | 0.00 | 0.00 | 0.00 | 80 | 1015.0 | |
| 20260906015527 | 29 | 3.2 | 8.0 | 0.00 | 0.00 | 0.00 | 79 | 1014.9 | |
| 20260906015026 | 29 | 3.2 | 8.0 | 0.00 | 0.00 | 0.00 | 79 | 1014.9 | |
| 20260906014530 | 29 | 4.8 | 8.0 | 0.00 | 0.00 | 0.00 | 79 | 1014.6 | |
| 20260906014027 | 30 | 3.2 | 8.0 | 0.00 | 0.00 | 0.00 | 79 | 1014.4 | |
| 20260906013524 | 29 | 3.2 | 8.0 | 0.00 | 0.00 | 0.00 | 79 | 1014.4 | |
| 20260906013024 | 29 | 1.6 | 4.8 | 0.00 | 0.00 | 0.00 | 79 | 1014.2 | |
| 20260906012522 | 30 | 1.6 | 4.8 | 0.00 | 0.00 | 0.00 | 78 | 1013.7 | |
| 20260906012023 | 30 | 0.0 | 6.4 | 0.00 | 0.00 | 0.00 | 78 | 1013.7 | |
| 20260906011522 | 30 | 0.0 | 9.7 | 0.00 | 0.00 | 0.00 | 77 | 1013.7 | |
| 20260906011025 | 30 | 3.2 | 11.3 | 0.00 | 0.00 | 0.00 | 77 | 1013.7 | |
| 20260906010520 | 30 | 3.2 | 11.3 | 0.00 | 0.00 | 0.00 | 77 | 1013.6 | |
| 20260906010020 | 30 | 1.6 | 9.7 | 0.00 | 0.00 | 0.00 | 77 | 1013.4 | |
| 20260906005520 | 30 | 1.6 | 9.7 | 0.00 | 0.00 | 0.00 | 77 | 1013.5 | |
| 20260906005019 | 30 | 1.6 | 4.8 | 0.00 | 0.00 | 0.00 | 76 | 1013.5 | |
| 20260906004519 | 30 | 0.0 | 3.2 | 0.00 | 0.00 | 0.00 | 76 | 1013.5 | |
| 20260906004017 | 30 | 0.0 | 3.2 | 0.00 | 0.00 | 0.00 | 76 | 1013.4 | |
| 20260906003517 | 30 | 0.0 | 4.8 | 0.00 | 0.00 | 0.00 | 75 | 1013.5 | |
| 20260906003023 | 30 | 1.6 | 4.8 | 0.00 | 0.00 | 0.00 | 74 | 1013.3 | |
| 20260906002516 | 31 | 1.6 | 4.8 | 0.00 | 0.00 | 0.00 | 73 | 1013.3 | |
| 20260906002015 | 31 | 0.0 | 4.8 | 0.00 | 0.00 | 0.00 | 73 | 1013.3 | |
| 20260906001516 | 31 | 1.6 | 4.8 | 0.00 | 0.00 | 0.00 | 72 | 1013.2 | |
| 20260906001015 | 31 | 0.0 | 4.8 | 0.00 | 0.00 | 0.00 | 71 | 1013.3 | |
| 20260906000513 | 31 | 1.6 | 4.8 | 0.00 | 0.00 | 0.00 | 70 | 1013.2 | |
| 20260906000013 | 32 | 0.0 | 3.2 | 0.00 | 0.00 | 0.00 | 70 | 1013.2 | |
| 20260905235512 | 32 | 0.0 | 1.6 | 0.00 | 0.00 | 0.00 | 69 | 1013.4 | |
| 20260905235014 | 32 | 0.0 | 0.0 | 0.00 | 0.00 | 0.00 | 69 | 1013.5 | |
| 20260905234512 | 32 | 0.0 | 1.6 | 0.00 | 0.00 | 0.00 | 68 | 1013.4 | |
| 20260905234013 | 32 | 0.0 | 1.6 | 0.00 | 0.00 | 0.00 | 67 | 1013.5 | |
| 20260905233511 | 32 | 0.0 | 3.2 | 0.00 | 0.00 | 0.00 | 67 | 1013.5 | |
| 20260905233012 | 33 | 1.6 | 3.2 | 0.00 | 0.00 | 0.00 | 66 | 1013.5 | |
| 20260905232513 | 33 | 0.0 | 3.2 | 0.00 | 0.00 | 0.00 | 66 | 1013.4 | |
| 20260905232009 | 33 | 0.0 | 11.3 | 0.00 | 0.00 | 0.00 | 65 | 1013.4 | |
| 20260905231507 | 33 | 1.6 | 11.3 | 0.00 | 0.00 | 0.00 | 64 | 1013.3 | |
| 20260905231007 | 33 | 3.2 | 9.7 | 0.00 | 0.00 | 0.00 | 64 | 1013.3 | |
| 20260905230506 | 33 | 3.2 | 11.3 | 0.00 | 0.00 | 0.00 | 64 | 1013.3 | |
| 20260905230008 | 33 | 4.8 | 11.3 | 0.00 | 0.00 | 0.00 | 63 | 1013.3 | |
| 20260905225506 | 34 | 3.2 | 8.0 | 0.00 | 0.00 | 0.00 | 61 | 1013.4 | |
| 20260905225006 | 34 | 1.6 | 8.0 | 0.00 | 0.00 | 0.00 | 61 | 1013.3 | |
| 20260905224506 | 34 | 0.0 | 6.4 | 0.00 | 0.00 | 0.00 | 61 | 1013.4 | |
| 20260905224004 | 34 | 0.0 | 6.4 | 0.00 | 0.00 | 0.00 | 61 | 1013.4 | |
| 20260905223504 | 35 | 1.6 | 6.4 | 0.00 | 0.00 | 0.00 | 60 | 1013.3 | |
| 20260905223010 | 35 | 0.0 | 8.0 | 0.00 | 0.00 | 0.00 | 60 | 1013.3 | |
| 20260905222503 | 35 | 1.6 | 8.0 | 0.00 | 0.00 | 0.00 | 60 | 1013.3 | |
| 20260905222003 | 35 | 1.6 | 8.0 | 0.00 | 0.00 | 0.00 | 61 | 1013.2 | |
| 20260905221501 | 35 | 1.6 | 12.9 | 0.00 | 0.00 | 0.00 | 60 | 1013.3 | |
| 20260905221001 | 35 | 4.8 | 12.9 | 0.00 | 0.00 | 0.00 | 61 | 1013.2 | |
| 20260905220559 | 35 | 0.0 | 8.0 | 0.00 | 0.00 | 0.00 | 60 | 1013.2 | |
| 20260905220104 | 35 | 3.2 | 8.0 | 0.00 | 0.00 | 0.00 | 61 | 1013.2 | |
| 20260905215559 | 34 | 0.0 | 4.8 | 0.00 | 0.00 | 0.00 | 60 | 1013.3 | |
| 20260905215059 | 35 | 0.0 | 8.0 | 0.00 | 0.00 | 0.00 | 57 | 1013.2 | |
| 20260905214558 | 35 | 1.6 | 4.8 | 0.00 | 0.00 | 0.00 | 57 | 1013.2 | |
| 20260905214057 | 35 | 0.0 | 8.0 | 0.00 | 0.00 | 0.00 | 58 | 1013.1 | |
| 20260905213557 | 35 | 3.2 | 8.0 | 0.00 | 0.00 | 0.00 | 59 | 1013.2 | |
| 20260905213105 | 35 | 1.6 | 6.4 | 0.00 | 0.00 | 0.00 | 57 | 1013.4 | |
| 20260905212555 | 35 | 3.2 | 6.4 | 0.00 | 0.00 | 0.00 | 59 | 1013.3 | |
| 20260905212054 | 35 | 0.0 | 6.4 | 0.00 | 0.00 | 0.00 | 58 | 1013.4 | |
| 20260905211554 | 35 | 0.0 | 8.0 | 0.00 | 0.00 | 0.00 | 59 | 1013.4 | |
| 20260905211053 | 35 | 3.2 | 8.0 | 0.00 | 0.00 | 0.00 | 58 | 1013.4 | |
| 20260905210553 | 35 | 0.0 | 3.2 | 0.00 | 0.00 | 0.00 | 57 | 1013.4 | |
| 20260905210107 | 35 | 0.0 | 8.0 | 0.00 | 0.00 | 0.00 | 56 | 1013.5 | |
| 20260905205551 | 36 | 4.8 | 8.0 | 0.00 | 0.00 | 0.00 | 56 | 1013.5 | |
| 20260905205051 | 35 | 0.0 | 8.0 | 0.00 | 0.00 | 0.00 | 56 | 1013.3 | |
| 20260905204551 | 36 | 3.2 | 9.7 | 0.00 | 0.00 | 0.00 | 55 | 1013.3 | |
| 20260905204055 | 36 | 3.2 | 9.7 | 0.00 | 0.00 | 0.00 | 54 | 1013.4 | |
| 20260905203548 | 36 | 4.8 | 9.7 | 0.00 | 0.00 | 0.00 | 56 | 1013.3 | |
| 20260905203048 | 36 | 3.2 | 11.3 | 0.00 | 0.00 | 0.00 | 56 | 1013.3 | |
| 20260905202545 | 36 | 0.0 | 11.3 | 0.00 | 0.00 | 0.00 | 55 | 1013.3 | |
| 20260905202045 | 36 | 1.6 | 11.3 | 0.00 | 0.00 | 0.00 | 55 | 1013.5 | |
| 20260905201543 | 36 | 1.6 | 11.3 | 0.00 | 0.00 | 0.00 | 55 | 1013.5 | |
| 20260905201044 | 36 | 4.8 | 14.5 | 0.00 | 0.00 | 0.00 | 56 | 1013.6 | |
| 20260905200541 | 36 | 6.4 | 14.5 | 0.00 | 0.00 | 0.00 | 56 | 1013.6 | |
| 20260905200055 | 36 | 8.0 | 12.9 | 0.00 | 0.00 | 0.00 | 55 | 1013.7 | |
| 20260905195538 | 37 | 1.6 | 4.8 | 0.00 | 0.00 | 0.00 | 55 | 1013.8 | |
| 20260905195037 | 36 | 1.6 | 9.7 | 0.00 | 0.00 | 0.00 | 55 | 1013.9 | |
| 20260905194537 | 36 | 1.6 | 11.3 | 0.00 | 0.00 | 0.00 | 55 | 1014.0 | |
| 20260905194038 | 36 | 3.2 | 14.5 | 0.00 | 0.00 | 0.00 | 55 | 1014.0 | |
| 20260905193534 | 36 | 1.6 | 14.5 | 0.00 | 0.00 | 0.00 | 56 | 1014.1 | |
| 20260905193032 | 36 | 0.0 | 9.7 | 0.00 | 0.00 | 0.00 | 56 | 1014.2 | |
| 20260905192531 | 36 | 3.2 | 9.7 | 0.00 | 0.00 | 0.00 | 57 | 1014.1 | |
| 20260905192032 | 36 | 0.0 | 9.7 | 0.00 | 0.00 | 0.00 | 57 | 1014.2 | |
| 20260905191527 | 36 | 3.2 | 9.7 | 0.00 | 0.00 | 0.00 | 57 | 1014.2 | |
| 20260905191026 | 35 | 1.6 | 8.0 | 0.00 | 0.00 | 0.00 | 58 | 1014.3 | |
| 20260905190525 | 35 | 3.2 | 9.7 | 0.00 | 0.00 | 0.00 | 60 | 1014.3 | |
| 20260905190025 | 35 | 4.8 | 9.7 | 0.00 | 0.00 | 0.00 | 59 | 1014.4 | |
| 20260905185527 | 35 | 3.2 | 9.7 | 0.00 | 0.00 | 0.00 | 60 | 1014.4 | |
| 20260905185023 | 35 | 0.0 | 8.0 | 0.00 | 0.00 | 0.00 | 58 | 1014.6 | |
| 20260905184530 | 35 | 1.6 | 9.7 | 0.00 | 0.00 | 0.00 | 61 | 1014.6 | |
| 20260905184024 | 35 | 3.2 | 12.9 | 0.00 | 0.00 | 0.00 | 60 | 1014.6 | |
| 20260905183520 | 35 | 4.8 | 14.5 | 0.00 | 0.00 | 0.00 | 59 | 1014.7 | |
| 20260905183018 | 35 | 6.4 | 14.5 | 0.00 | 0.00 | 0.00 | 59 | 1014.9 | |
| 20260905182517 | 34 | 3.2 | 14.5 | 0.00 | 0.00 | 0.00 | 62 | 1015.0 | |
| 20260905182016 | 33 | 0.0 | 11.3 | 0.00 | 0.00 | 0.00 | 64 | 1015.2 | |
| 20260905181515 | 34 | 6.4 | 12.9 | 0.00 | 0.00 | 0.00 | 61 | 1015.1 | |
| 20260905181014 | 35 | 3.2 | 12.9 | 0.00 | 0.00 | 0.00 | 61 | 1015.3 | |
| 20260905180517 | 35 | 3.2 | 9.7 | 0.00 | 0.00 | 0.00 | 61 | 1015.3 | |
| 20260905180012 | 35 | 0.0 | 12.9 | 0.00 | 0.00 | 0.00 | 61 | 1015.4 | |
| 20260905175512 | 34 | 6.4 | 14.5 | 0.00 | 0.00 | 0.00 | 63 | 1015.5 | |
| 20260905175009 | 35 | 9.7 | 14.5 | 0.00 | 0.00 | 0.00 | 63 | 1015.6 | |
| 20260905174507 | 34 | 3.2 | 11.3 | 0.00 | 0.00 | 0.00 | 65 | 1015.7 | |
| 20260905174004 | 33 | 1.6 | 8.0 | 0.00 | 0.00 | 0.00 | 66 | 1015.7 | |
| 20260905173504 | 33 | 3.2 | 12.9 | 0.00 | 0.00 | 0.00 | 67 | 1015.8 | |
| 20260905173007 | 33 | 1.6 | 12.9 | 0.00 | 0.00 | 0.00 | 67 | 1015.8 | |
| 20260905172502 | 33 | 0.0 | 11.3 | 0.00 | 0.00 | 0.00 | 66 | 1015.7 | |
| 20260905172002 | 33 | 3.2 | 11.3 | 0.00 | 0.00 | 0.00 | 66 | 1015.9 | |
| 20260905171606 | 33 | 0.0 | 4.8 | 0.00 | 0.00 | 0.00 | 66 | 1015.9 | |
| 20260905171059 | 33 | 0.0 | 4.8 | 0.00 | 0.00 | 0.00 | 67 | 1015.9 | |
| 20260905170600 | 33 | 0.0 | 11.3 | 0.00 | 0.00 | 0.00 | 66 | 1016.0 | |
| 20260905170100 | 34 | 4.8 | 11.3 | 0.00 | 0.00 | 0.00 | 65 | 1016.1 | |
| 20260905165557 | 34 | 4.8 | 9.7 | 0.00 | 0.00 | 0.00 | 64 | 1016.1 | |
| 20260905165100 | 33 | 3.2 | 9.7 | 0.00 | 0.00 | 0.00 | 65 | 1016.2 | |
| 20260905164553 | 32 | 0.0 | 6.4 | 0.00 | 0.00 | 0.00 | 70 | 1016.2 | |
| 20260905164053 | 32 | 1.6 | 4.8 | 0.00 | 0.00 | 0.00 | 69 | 1016.4 | |
| 20260905163552 | 32 | 0.0 | 4.8 | 0.00 | 0.00 | 0.00 | 69 | 1016.6 | |
| 20260905163050 | 32 | 0.0 | 6.4 | 0.00 | 0.00 | 0.00 | 70 | 1016.7 | |
| 20260905162549 | 32 | 0.0 | 11.3 | 0.00 | 0.00 | 0.00 | 71 | 1016.8 | |
| 20260905162046 | 32 | 3.2 | 11.3 | 0.00 | 0.00 | 0.00 | 70 | 1016.9 | |
| 20260905161545 | 32 | 0.0 | 9.7 | 0.00 | 0.00 | 0.00 | 72 | 1016.9 | |
| 20260905161043 | 31 | 1.6 | 11.3 | 0.00 | 0.00 | 0.00 | 75 | 1017.0 | |
| 20260905160544 | 30 | 6.4 | 11.3 | 0.00 | 0.00 | 0.00 | 74 | 1017.1 | |
| 20260905160048 | 30 | 0.0 | 3.2 | 0.00 | 0.00 | 0.00 | 76 | 1017.1 | |
| 20260905155539 | 30 | 0.0 | 6.4 | 0.00 | 0.00 | 0.00 | 77 | 1017.0 | |
| 20260905155039 | 30 | 1.6 | 6.4 | 0.00 | 0.00 | 0.00 | 76 | 1017.0 | |
| 20260905154551 | 30 | 0.0 | 4.8 | 0.00 | 0.00 | 0.00 | 76 | 1017.0 | |
| 20260905154039 | 30 | 0.0 | 6.4 | 0.00 | 0.00 | 0.00 | 78 | 1017.0 | |
| 20260905153539 | 30 | 0.0 | 6.4 | 0.00 | 0.00 | 0.00 | 77 | 1017.0 | |
| 20260905153037 | 30 | 1.6 | 6.4 | 0.00 | 0.00 | 0.00 | 77 | 1017.1 | |
| 20260905152537 | 30 | 0.0 | 4.8 | 0.00 | 0.00 | 0.00 | 77 | 1017.2 | |
| 20260905152037 | 31 | 0.0 | 12.9 | 0.00 | 0.00 | 0.00 | 75 | 1017.4 | |
| 20260905151536 | 31 | 3.2 | 12.9 | 0.00 | 0.00 | 0.00 | 77 | 1017.4 | |
| 20260905151033 | 31 | 4.8 | 8.0 | 0.00 | 0.00 | 0.00 | 76 | 1017.5 | |
| 20260905150531 | 30 | 1.6 | 6.4 | 0.00 | 0.00 | 0.00 | 79 | 1017.6 | |
| 20260905150030 | 30 | 1.6 | 4.8 | 0.00 | 0.00 | 0.00 | 78 | 1017.6 | |
| 20260905145531 | 30 | 0.0 | 4.8 | 0.00 | 0.00 | 0.00 | 78 | 1017.6 | |
| 20260905145028 | 30 | 1.6 | 8.0 | 0.00 | 0.00 | 0.00 | 79 | 1017.6 | |
| 20260905144537 | 28 | 0.0 | 3.2 | 0.00 | 0.00 | 0.00 | 82 | 1017.5 | |
| 20260905144026 | 28 | 0.0 | 1.6 | 0.00 | 0.00 | 0.00 | 82 | 1017.5 | |
| 20260905143525 | 28 | 0.0 | 1.6 | 0.00 | 0.00 | 0.00 | 83 | 1017.7 | |
| 20260905143023 | 27 | 0.0 | 3.2 | 0.00 | 0.00 | 0.00 | 85 | 1017.7 | |
| 20260905142521 | 27 | 0.0 | 4.8 | 0.00 | 0.00 | 0.00 | 86 | 1017.7 | |
| 20260905142026 | 27 | 0.0 | 6.4 | 0.00 | 0.00 | 0.00 | 85 | 1017.8 | |
| 20260905141524 | 27 | 0.0 | 6.4 | 0.00 | 0.00 | 0.00 | 86 | 1017.8 | |
| 20260905141018 | 27 | 0.0 | 4.8 | 0.00 | 0.00 | 0.00 | 87 | 1017.7 | |
| 20260905140518 | 27 | 0.0 | 4.8 | 0.00 | 0.00 | 0.00 | 87 | 1017.8 | |
| 20260905140016 | 26 | 0.0 | 3.2 | 0.00 | 0.00 | 0.00 | 89 | 1017.7 | |
| 20260905135513 | 26 | 0.0 | 6.4 | 0.00 | 0.00 | 0.00 | 90 | 1017.8 | |
| 20260905135013 | 26 | 0.0 | 6.4 | 0.00 | 0.00 | 0.00 | 90 | 1017.7 | |
| 20260905134511 | 26 | 3.2 | 6.4 | 0.00 | 0.00 | 0.00 | 91 | 1017.8 | |
| 20260905134013 | 26 | 1.6 | 6.4 | 0.00 | 0.00 | 0.00 | 91 | 1017.7 | |
| 20260905133507 | 25 | 0.0 | 4.8 | 0.00 | 0.00 | 0.00 | 91 | 1017.8 | |
| 20260905133008 | 25 | 0.0 | 4.8 | 0.00 | 0.00 | 0.00 | 92 | 1017.8 | |
| 20260905132505 | 25 | 0.0 | 4.8 | 0.00 | 0.00 | 0.00 | 92 | 1017.8 | |
| 20260905132005 | 25 | 0.0 | 4.8 | 0.00 | 0.00 | 0.00 | 93 | 1017.8 | |
| 20260905131502 | 25 | 0.0 | 4.8 | 0.00 | 0.00 | 0.00 | 93 | 1017.8 | |
| 20260905131002 | 25 | 0.0 | 6.4 | 0.00 | 0.00 | 0.00 | 93 | 1017.8 | |
| 20260905130602 | 25 | 1.6 | 6.4 | 0.00 | 0.00 | 0.00 | 94 | 1017.8 | |
| 20260905130059 | 25 | 0.0 | 3.2 | 0.00 | 0.00 | 0.00 | 95 | 1017.8 | |
| 20260905125601 | 25 | 0.0 | 1.6 | 0.00 | 0.00 | 0.00 | 94 | 1017.8 | |
| 20260905125059 | 25 | 0.0 | 1.6 | 0.00 | 0.00 | 0.00 | 95 | 1017.8 | |
| 20260905124556 | 24 | 0.0 | 1.6 | 0.00 | 0.00 | 0.00 | 95 | 1017.6 | |
| 20260905124055 | 24 | 0.0 | 1.6 | 0.00 | 0.00 | 0.00 | 95 | 1017.6 | |
| 20260905123554 | 24 | 0.0 | 1.6 | 0.00 | 0.00 | 0.00 | 96 | 1017.7 | |
| 20260905123053 | 24 | 0.0 | 3.2 | 0.00 | 0.00 | 0.00 | 95 | 1017.8 | |
| 20260905122552 | 24 | 0.0 | 3.2 | 0.00 | 0.00 | 0.00 | 96 | 1017.7 | |
| 20260905122057 | 24 | 0.0 | 3.2 | 0.00 | 0.00 | 0.00 | 96 | 1017.6 | |
| 20260905121551 | 24 | 0.0 | 1.6 | 0.00 | 0.00 | 0.00 | 96 | 1017.6 | |
| 20260905121050 | 24 | 0.0 | 3.2 | 0.00 | 0.00 | 0.00 | 96 | 1017.6 | |
| 20260905120555 | 24 | 0.0 | 3.2 | 0.00 | 0.00 | 0.00 | 96 | 1017.5 | |
| 20260905120049 | 24 | 0.0 | 1.6 | 0.00 | 0.00 | 0.00 | 96 | 1017.5 | |
| 20260905115549 | 24 | 0.0 | 4.8 | 0.00 | 0.00 | 0.00 | 96 | 1017.4 | |
| 20260905115048 | 24 | 1.6 | 8.0 | 0.00 | 0.00 | 0.00 | 96 | 1017.4 | |
| 20260905114604 | 24 | 3.2 | 8.0 | 0.00 | 0.00 | 0.00 | 96 | 1017.3 | |
| 20260905114047 | 24 | 0.0 | 6.4 | 0.00 | 0.00 | 0.00 | 96 | 1017.3 | |
| 20260905113547 | 24 | 1.6 | 6.4 | 0.00 | 0.00 | 0.00 | 96 | 1017.1 | |
| 20260905113046 | 24 | 1.6 | 4.8 | 0.00 | 0.00 | 0.00 | 96 | 1017.1 | |
| 20260905112545 | 24 | 1.6 | 6.4 | 0.00 | 0.00 | 0.00 | 96 | 1017.0 |